• Em Portugal
  • Lista de países
  • Para 7 dias
  • Temperatura da água
  • Mapas de satélite
  • Mapa do tempo
  • Widgets de tempo
  • user-avatar
    Iniciar Sessão

    Previsão horária em La Rioja

    Hoje, 18 Fevereiro, Domingo

    Tempo Temperatura Precipitação Vento Pressão Humidade
    00:00 +27°C° 0,1 mm 1 m/s 712 mmHg 54%
    01:00 +27°C° 0,1 mm 1 m/s 712 mmHg 55%
    02:00 +26°C° 0,1 mm 1 m/s 711 mmHg 56%
    03:00 +26°C° 0 mm 1 m/s 711 mmHg 56%
    04:00 +26°C° 0 mm 1 m/s 711 mmHg 56%
    05:00 +25°C° 0 mm 1 m/s 710 mmHg 56%
    06:00 +26°C° 0 mm 1 m/s 711 mmHg 51%
    07:00 +28°C° 0 mm 1 m/s 711 mmHg 47%
    08:00 +29°C° 0 mm 1 m/s 711 mmHg 42%
    09:00 +30°C° 0 mm 1 m/s 711 mmHg 39%
    10:00 +31°C° 0 mm 1 m/s 710 mmHg 37%
    11:00 +33°C° 0 mm 1 m/s 710 mmHg 34%
    12:00 +34°C° 0 mm 1 m/s 709 mmHg 32%
    13:00 +35°C° 0 mm 2 m/s 709 mmHg 30%
    14:00 +36°C° 0 mm 2 m/s 708 mmHg 29%
    15:00 +37°C° 0,1 mm 2 m/s 707 mmHg 28%
    16:00 +37°C° 0,1 mm 3 m/s 707 mmHg 28%
    17:00 +37°C° 0,1 mm 3 m/s 706 mmHg 28%
    18:00 +36°C° 0,5 mm 3 m/s 707 mmHg 32%
    19:00 +34°C° 0,5 mm 3 m/s 707 mmHg 36%
    20:00 +33°C° 0,5 mm 3 m/s 708 mmHg 41%
    21:00 +31°C° 0,5 mm 3 m/s 708 mmHg 44%
    22:00 +30°C° 0,5 mm 2 m/s 708 mmHg 47%
    23:00 +29°C° 0,5 mm 2 m/s 709 mmHg 50%

    Amanhã, 19 Fevereiro, Segunda-feira

    Tempo Temperatura Precipitação Vento Pressão Humidade
    00:00 +28°C° 0,7 mm 2 m/s 709 mmHg 50%
    01:00 +28°C° 0,7 mm 2 m/s 708 mmHg 50%
    02:00 +28°C° 0,7 mm 1 m/s 708 mmHg 51%
    03:00 +27°C° 0,5 mm 1 m/s 708 mmHg 50%
    04:00 +27°C° 0,5 mm 1 m/s 708 mmHg 50%
    05:00 +27°C° 0,5 mm 1 m/s 708 mmHg 49%
    06:00 +28°C° 0,2 mm 1 m/s 709 mmHg 46%
    07:00 +29°C° 0,2 mm 1 m/s 709 mmHg 42%
    08:00 +30°C° 0,2 mm 1 m/s 710 mmHg 39%
    09:00 +31°C° 0,3 mm 1 m/s 710 mmHg 37%
    10:00 +32°C° 0,3 mm 1 m/s 710 mmHg 35%
    11:00 +33°C° 0,3 mm 1 m/s 710 mmHg 33%
    12:00 +35°C° 0,1 mm 2 m/s 709 mmHg 32%
    13:00 +36°C° 0,1 mm 2 m/s 709 mmHg 31%
    14:00 +37°C° 0,1 mm 2 m/s 708 mmHg 29%
    15:00 +37°C° 0,1 mm 2 m/s 708 mmHg 30%
    16:00 +37°C° 0,1 mm 3 m/s 707 mmHg 30%
    17:00 +37°C° 0,1 mm 3 m/s 707 mmHg 30%
    18:00 +36°C° 1 mm 3 m/s 708 mmHg 35%
    19:00 +34°C° 1 mm 3 m/s 708 mmHg 39%
    20:00 +33°C° 1 mm 3 m/s 709 mmHg 43%
    21:00 +31°C° 1,4 mm 3 m/s 709 mmHg 46%
    22:00 +30°C° 1,4 mm 3 m/s 710 mmHg 48%
    23:00 +29°C° 1,4 mm 3 m/s 710 mmHg 51%

    Depois de amanhã, 20 Fevereiro, Terça-feira

    Tempo Temperatura Precipitação Vento Pressão Humidade
    00:00 +29°C° 0,8 mm 2 m/s 710 mmHg 51%
    01:00 +28°C° 0,8 mm 2 m/s 710 mmHg 52%
    02:00 +28°C° 0,8 mm 2 m/s 710 mmHg 53%
    03:00 +27°C° 1,3 mm 2 m/s 710 mmHg 56%
    04:00 +27°C° 1,3 mm 2 m/s 710 mmHg 59%
    05:00 +26°C° 1,3 mm 2 m/s 710 mmHg 62%
    06:00 +27°C° 0,5 mm 2 m/s 711 mmHg 59%
    07:00 +28°C° 0,5 mm 2 m/s 712 mmHg 57%
    08:00 +28°C° 0,5 mm 2 m/s 712 mmHg 54%
    09:00 +29°C° 0,7 mm 2 m/s 712 mmHg 52%
    10:00 +30°C° 0,7 mm 2 m/s 713 mmHg 49%
    11:00 +31°C° 0,7 mm 2 m/s 713 mmHg 47%
    12:00 +33°C° 1,2 mm 3 m/s 712 mmHg 45%
    13:00 +34°C° 1,2 mm 3 m/s 712 mmHg 43%
    14:00 +35°C° 1,2 mm 3 m/s 711 mmHg 41%
    15:00 +35°C° 1,1 mm 3 m/s 711 mmHg 42%
    16:00 +35°C° 1,1 mm 4 m/s 711 mmHg 42%
    17:00 +35°C° 1,1 mm 4 m/s 711 mmHg 43%
    18:00 +34°C° 2,7 mm 3 m/s 712 mmHg 47%
    19:00 +31°C° 2,7 mm 3 m/s 712 mmHg 52%
    20:00 +30°C° 2,7 mm 2 m/s 713 mmHg 56%
    21:00 +30°C° 2,5 mm 2 m/s 714 mmHg 58%
    22:00 +29°C° 2,5 mm 2 m/s 714 mmHg 59%
    23:00 +28°C° 2,5 mm 2 m/s 715 mmHg 60%

    21 Fevereiro, Quarta-feira

    Tempo Temperatura Precipitação Vento Pressão Humidade
    00:00 +28°C° 2,2 mm 2 m/s 715 mmHg 62%
    01:00 +27°C° 2,2 mm 2 m/s 715 mmHg 64%
    02:00 +27°C° 2,2 mm 1 m/s 715 mmHg 65%
    03:00 +26°C° 0,9 mm 1 m/s 715 mmHg 66%
    04:00 +26°C° 0,9 mm 1 m/s 715 mmHg 66%
    05:00 +26°C° 0,9 mm 1 m/s 715 mmHg 66%
    06:00 +26°C° 0,4 mm 1 m/s 716 mmHg 64%
    07:00 +27°C° 0,4 mm 1 m/s 717 mmHg 61%
    08:00 +27°C° 0,4 mm 1 m/s 717 mmHg 58%
    09:00 +28°C° 0,4 mm 1 m/s 717 mmHg 55%
    10:00 +29°C° 0,4 mm 1 m/s 717 mmHg 51%
    11:00 +30°C° 0,4 mm 1 m/s 717 mmHg 47%
    12:00 +31°C° 0,5 mm 2 m/s 716 mmHg 44%
    13:00 +32°C° 0,5 mm 2 m/s 715 mmHg 41%
    14:00 +34°C° 0,5 mm 3 m/s 714 mmHg 38%
    15:00 +35°C° 0 mm 3 m/s 713 mmHg 37%
    16:00 +35°C° 0 mm 3 m/s 713 mmHg 37%
    17:00 +35°C° 0 mm 4 m/s 712 mmHg 36%
    18:00 +34°C° 0 mm 3 m/s 712 mmHg 39%
    19:00 +33°C° 0 mm 3 m/s 713 mmHg 43%
    20:00 +31°C° 0 mm 2 m/s 713 mmHg 47%
    21:00 +30°C° 0 mm 2 m/s 713 mmHg 49%
    22:00 +29°C° 0 mm 2 m/s 714 mmHg 51%
    23:00 +29°C° 0 mm 2 m/s 714 mmHg 54%

    22 Fevereiro, Quinta-feira

    Tempo Temperatura Precipitação Vento Pressão Humidade
    00:00 +28°C° 0 mm 2 m/s 714 mmHg 55%
    01:00 +28°C° 0 mm 2 m/s 713 mmHg 56%
    02:00 +27°C° 0 mm 2 m/s 713 mmHg 57%
    03:00 +27°C° 0,3 mm 2 m/s 713 mmHg 58%
    04:00 +26°C° 0,3 mm 2 m/s 713 mmHg 60%
    05:00 +26°C° 0,3 mm 2 m/s 713 mmHg 61%
    06:00 +27°C° 0 mm 2 m/s 713 mmHg 59%
    07:00 +28°C° 0 mm 2 m/s 714 mmHg 56%
    08:00 +28°C° 0 mm 2 m/s 714 mmHg 54%
    09:00 +30°C° 0,1 mm 2 m/s 714 mmHg 50%
    10:00 +31°C° 0,1 mm 3 m/s 714 mmHg 46%
    11:00 +33°C° 0,1 mm 3 m/s 714 mmHg 42%
    12:00 +34°C° 0,1 mm 3 m/s 713 mmHg 39%
    13:00 +35°C° 0,1 mm 4 m/s 713 mmHg 37%
    14:00 +36°C° 0,1 mm 4 m/s 712 mmHg 34%
    15:00 +36°C° 0,4 mm 5 m/s 712 mmHg 35%
    16:00 +36°C° 0,4 mm 5 m/s 711 mmHg 37%
    17:00 +36°C° 0,4 mm 6 m/s 711 mmHg 38%
    18:00 +35°C° 0,3 mm 5 m/s 711 mmHg 42%
    19:00 +33°C° 0,2 mm 4 m/s 711 mmHg 47%
    20:00 +31°C° 0,2 mm 3 m/s 712 mmHg 51%
    21:00 +30°C° 0,7 mm 3 m/s 712 mmHg 54%
    22:00 +29°C° 0,7 mm 2 m/s 712 mmHg 58%
    23:00 +29°C° 0,7 mm 2 m/s 713 mmHg 61%

    23 Fevereiro, Sexta-feira

    Tempo Temperatura Precipitação Vento Pressão Humidade
    00:00 +28°C° 0 mm 2 m/s 712 mmHg 61%
    01:00 +28°C° 0 mm 2 m/s 712 mmHg 61%
    02:00 +27°C° 0 mm 2 m/s 712 mmHg 62%
    03:00 +27°C° 0 mm 1 m/s 712 mmHg 61%
    04:00 +27°C° 0 mm 1 m/s 712 mmHg 61%
    05:00 +26°C° 0 mm 1 m/s 712 mmHg 61%
    06:00 +26°C° 0,6 mm 4 m/s 714 mmHg 62%
    07:00 +26°C° 0,6 mm 6 m/s 715 mmHg 63%
    08:00 +26°C° 0,6 mm 8 m/s 716 mmHg 64%
    09:00 +27°C° 0,1 mm 8 m/s 716 mmHg 63%
    10:00 +27°C° 0,1 mm 9 m/s 717 mmHg 62%
    11:00 +27°C° 0,1 mm 9 m/s 717 mmHg 60%
    12:00 +28°C° 0 mm 8 m/s 717 mmHg 57%
    13:00 +29°C° 0 mm 7 m/s 716 mmHg 54%
    14:00 +29°C° 0 mm 7 m/s 716 mmHg 51%
    15:00 +30°C° 0 mm 6 m/s 716 mmHg 50%
    16:00 +30°C° 0 mm 5 m/s 715 mmHg 48%
    17:00 +30°C° 0 mm 5 m/s 715 mmHg 47%
    18:00 +29°C° 0 mm 4 m/s 716 mmHg 50%
    19:00 +28°C° 0 mm 4 m/s 716 mmHg 53%
    20:00 +27°C° 0 mm 4 m/s 717 mmHg 55%
    21:00 +27°C° 0 mm 4 m/s 717 mmHg 57%
    22:00 +26°C° 0 mm 4 m/s 718 mmHg 59%
    23:00 +25°C° 0 mm 4 m/s 718 mmHg 61%
    Mostrar mais